Weather History for Beaver Island, MI

Change the Weather History Date:

Friday, October 12, 2012

  Actual Average Record
Temperature  
Mean Temperature 38 °F -  
Max Temperature 49 °F 56 °F 74 °F (2013)
Min Temperature 27 °F 40 °F 27 °F (2012)
Degree Days  
Heating Degree Days 27    
Moisture  
Dew Point 29 °F    
Average Humidity 62    
Maximum Humidity 92    
Minimum Humidity 42    
Precipitation  
Precipitation 0.00 in - - ()
Sea Level Pressure  
Sea Level Pressure 30.35 in    
Wind  
Wind Speed 7 mph (West)    
Max Wind Speed 14 mph    
Max Gust Speed 22 mph    
Visibility 10 miles    
Events      
Averages and records for this station are not official NWS values.
T = Trace of Precipitation, MM = Missing Value Source: NWS Daily Summary

Daily Weather History Graph

Daily Weather History Graph

Search for Another Location

Airport:

Trip Planner

Search our weather history database for the weather conditions in past years. The results will help you decide how hot, cold, wet, or windy it might be!

Date:

Astronomy

Oct. 12, 2012 Rise Set
Actual Time 7:55 AM EDT 7:01 PM EDT
Civil Twilight 7:25 AM EDT 7:30 PM EDT
Nautical Twilight 6:51 AM EDT 8:05 PM EDT
Astronomical Twilight 6:16 AM EDT 8:39 PM EDT
Moon 4:29 AM EDT (10/12) 5:16 PM EDT (10/12)
Length of Visible Light 12h 05m
Length of Day
11h 05m
Waning Crescent, 11% of the Moon is Illuminated
Oct 12
Waning Crescent
Oct 15
New
Oct 21
First Quarter
Oct 29
Full
Nov 6
Last Quarter

Hourly Weather History & Observations

Time (EDT) Temp. Windchill Dew Point Humidity Pressure Visibility Wind Dir Wind Speed Gust Speed Precip Events Conditions
12:15 AM 39.6 °F 33.5 °F 31.6 °F 73% 30.19 in 10.0 mi NNW 9.2 mph 17.3 mph N/A   Scattered Clouds
12:35 AM 39.2 °F 31.2 °F 31.8 °F 75% 30.20 in 10.0 mi NW 13.8 mph 21.9 mph N/A   Scattered Clouds
12:55 AM 39.2 °F 33.0 °F 32.0 °F 75% 30.21 in 10.0 mi NNW 9.2 mph 18.4 mph N/A   Scattered Clouds
1:15 AM 38.3 °F 31.4 °F 32.0 °F 78% 30.23 in 10.0 mi NNW 10.4 mph 17.3 mph N/A   Mostly Cloudy
1:35 AM 39.2 °F 31.2 °F 31.8 °F 75% 30.24 in 10.0 mi North 13.8 mph 20.7 mph N/A   Mostly Cloudy
2:15 AM 39.2 °F 33.6 °F 30.9 °F 72% 30.25 in 10.0 mi NW 8.1 mph 16.1 mph N/A   Scattered Clouds
2:35 AM 38.8 °F 33.8 °F 30.2 °F 71% 30.26 in 10.0 mi NNW 6.9 mph - N/A   Scattered Clouds
2:55 AM 38.7 °F 34.3 °F 29.1 °F 69% 30.26 in 10.0 mi NNW 5.8 mph - N/A   Clear
3:15 AM 39.2 °F 34.2 °F 30.2 °F 70% 30.27 in 10.0 mi NNW 6.9 mph 16.1 mph N/A   Clear
3:35 AM 38.5 °F 32.7 °F 30.2 °F 72% 30.27 in 10.0 mi North 8.1 mph - N/A   Clear
3:55 AM 38.5 °F 33.4 °F 28.0 °F 66% 30.28 in 10.0 mi NNW 6.9 mph - N/A   Clear
4:15 AM 38.1 °F 33.7 °F 30.4 °F 74% 30.29 in 10.0 mi NNW 5.8 mph - N/A   Clear
4:35 AM 38.1 °F 33.7 °F 30.0 °F 73% 30.30 in 10.0 mi NNW 5.8 mph - N/A   Clear
4:55 AM 38.3 °F 33.2 °F 29.7 °F 71% 30.31 in 10.0 mi NNW 6.9 mph - N/A   Clear
5:15 AM 37.9 °F 35.5 °F 28.6 °F 69% 30.32 in 10.0 mi NNW 3.5 mph - N/A   Clear
5:35 AM 38.1 °F 35.7 °F 27.0 °F 64% 30.33 in 10.0 mi NNW 3.5 mph - N/A   Scattered Clouds
5:55 AM 38.1 °F - 27.9 °F 67% 30.33 in 10.0 mi Calm Calm - N/A   Scattered Clouds
6:15 AM 37.6 °F - 27.9 °F 68% 30.34 in 10.0 mi Calm Calm - N/A   Scattered Clouds
6:55 AM 30.0 °F - 25.9 °F 85% 30.35 in 10.0 mi Calm Calm - N/A   Clear
7:15 AM 29.1 °F - 25.9 °F 88% 30.36 in 10.0 mi Calm Calm - N/A   Clear
7:35 AM 28.8 °F - 25.9 °F 89% 30.36 in 10.0 mi Calm Calm - N/A   Scattered Clouds
7:55 AM 29.5 °F - 27.1 °F 91% 30.37 in 10.0 mi Calm Calm - N/A   Scattered Clouds
8:15 AM 27.9 °F - 25.2 °F 90% 30.38 in 10.0 mi Calm Calm - N/A   Scattered Clouds
8:35 AM 29.3 °F - 27.0 °F 91% 30.39 in 10.0 mi Calm Calm - N/A   Mostly Cloudy
8:55 AM 32.0 °F - 30.0 °F 92% 30.40 in 10.0 mi Calm Calm - N/A   Scattered Clouds
9:14 AM 34.9 °F - 32.4 °F 91% 30.40 in 10.0 mi Calm Calm - N/A   Scattered Clouds
9:35 AM 39.0 °F - 32.9 °F 79% 30.41 in 10.0 mi Calm Calm - N/A   Scattered Clouds
10:15 AM 44.6 °F 42.2 °F 30.7 °F 58% 30.41 in 10.0 mi West 4.6 mph - N/A   Clear
10:35 AM 45.7 °F 42.0 °F 30.7 °F 56% 30.41 in 10.0 mi West 6.9 mph - N/A   Scattered Clouds
10:54 AM 45.5 °F 42.5 °F 30.0 °F 55% 30.42 in 10.0 mi West 5.8 mph - N/A   Scattered Clouds
11:15 AM 45.7 °F 42.7 °F 29.3 °F 53% 30.42 in 10.0 mi WNW 5.8 mph - N/A   Scattered Clouds
11:35 AM 46.6 °F - 28.4 °F 49% 30.42 in 10.0 mi West 4.6 mph - N/A   Clear
11:55 AM 46.0 °F 43.1 °F 27.7 °F 49% 30.42 in 10.0 mi West 5.8 mph - N/A   Clear
12:15 PM 46.8 °F - 29.8 °F 52% 30.42 in 10.0 mi West 5.8 mph - N/A   Clear
12:35 PM 46.6 °F - 27.9 °F 48% 30.43 in 10.0 mi WSW 8.1 mph - N/A   Scattered Clouds
12:55 PM 46.9 °F - 27.3 °F 46% 30.43 in 10.0 mi WNW 6.9 mph - N/A   Scattered Clouds
1:15 PM 48.0 °F - 29.7 °F 49% 30.42 in 10.0 mi West 6.9 mph - N/A   Clear
1:35 PM 48.7 °F - 29.7 °F 48% 30.42 in 10.0 mi WSW 10.4 mph 16.1 mph N/A   Scattered Clouds
1:55 PM 46.0 °F 42.5 °F 27.0 °F 47% 30.41 in 10.0 mi SW 6.9 mph - N/A   Clear
2:35 PM 48.6 °F - 27.1 °F 43% 30.40 in 10.0 mi SW 9.2 mph - N/A   Scattered Clouds
2:55 PM 49.3 °F - 27.1 °F 42% 30.40 in 10.0 mi SW 10.4 mph 16.1 mph N/A   Scattered Clouds
3:15 PM 46.8 °F - 26.4 °F 45% 30.40 in 10.0 mi West 8.1 mph - N/A   Scattered Clouds
3:35 PM 48.6 °F - 26.8 °F 43% 30.39 in 10.0 mi WSW 6.9 mph - N/A   Scattered Clouds
3:55 PM 48.2 °F - 26.6 °F 43% 30.39 in 10.0 mi WSW 8.1 mph 16.1 mph N/A   Scattered Clouds
4:15 PM 48.2 °F - 26.2 °F 42% 30.38 in 10.0 mi WSW 8.1 mph 16.1 mph N/A   Scattered Clouds
4:35 PM 46.4 °F 41.9 °F 27.0 °F 47% 30.38 in 10.0 mi WSW 9.2 mph - N/A   Scattered Clouds
4:55 PM 48.0 °F - 28.8 °F 47% 30.38 in 10.0 mi West 13.8 mph 17.3 mph N/A   Scattered Clouds
5:15 PM 47.3 °F - 27.7 °F 47% 30.38 in 10.0 mi SW 8.1 mph - N/A   Scattered Clouds
5:35 PM 46.9 °F - 27.5 °F 47% 30.38 in 10.0 mi WSW 9.2 mph - N/A   Scattered Clouds
6:15 PM 45.5 °F 42.5 °F 27.9 °F 50% 30.38 in 10.0 mi SW 5.8 mph - N/A   Scattered Clouds
6:55 PM 43.2 °F 40.5 °F 28.4 °F 56% 30.36 in 10.0 mi SSW 4.6 mph - N/A   Scattered Clouds
7:15 PM 43.0 °F 40.3 °F 28.8 °F 57% 30.36 in 10.0 mi SSW 4.6 mph - N/A   Scattered Clouds
7:35 PM 42.6 °F 39.0 °F 28.0 °F 56% 30.35 in 10.0 mi SSW 5.8 mph - N/A   Scattered Clouds
7:55 PM 41.9 °F - 27.9 °F 58% 30.34 in 10.0 mi Calm Calm - N/A   Clear
8:15 PM 42.6 °F 40.9 °F 28.8 °F 58% 30.34 in 10.0 mi SSW 3.5 mph - N/A   Clear
8:35 PM 39.9 °F 37.8 °F 29.8 °F 67% 30.34 in 10.0 mi South 3.5 mph - N/A   Scattered Clouds
8:55 PM 41.5 °F 39.6 °F 29.3 °F 62% 30.33 in 10.0 mi South 3.5 mph - N/A   Scattered Clouds
9:15 PM 43.5 °F 39.4 °F 30.2 °F 59% 30.33 in 10.0 mi SSW 6.9 mph - N/A   Scattered Clouds
9:35 PM 44.1 °F 40.1 °F 29.3 °F 56% 30.32 in 10.0 mi South 6.9 mph - N/A   Scattered Clouds
9:55 PM 44.4 °F 42.0 °F 29.1 °F 55% 30.32 in 10.0 mi South 4.6 mph - N/A   Clear
10:15 PM 45.0 °F 40.1 °F 30.9 °F 58% 30.31 in 10.0 mi SSW 9.2 mph - N/A   Scattered Clouds
10:35 PM 45.5 °F 40.3 °F 31.5 °F 58% 30.31 in 10.0 mi SSW 10.4 mph - N/A   Scattered Clouds
10:55 PM 45.5 °F 43.2 °F 31.6 °F 58% 30.31 in 10.0 mi SSW 4.6 mph - N/A   Scattered Clouds
11:16 PM 46.0 °F 41.9 °F 31.6 °F 57% 30.31 in 10.0 mi SSW 8.1 mph - N/A   Scattered Clouds
11:35 PM 46.0 °F 41.9 °F 31.6 °F 57% 30.31 in 10.0 mi SSW 8.1 mph - N/A   Clear
11:55 PM 45.9 °F 41.2 °F 32.0 °F 58% 30.29 in 10.0 mi South 9.2 mph - N/A   Clear